Theta_e
317 319 322 325 330 335 336 339 341 343 343 343 345 346 347 348 349 348 344 345 340 336 337 336 336 338 336 334 334 333 331 330 326 327 326 329 329 331 333 334 334 337 334
316 318 321 325 329 332 334 337 340 341 343 343 345 346 348 348 348 345 342 341 336 334 337 339 337 335 337 336 334 334 332 332 329 327 324 326 327 331 329 329 331 333 335
320 320 321 325 329 332 333 337 340 341 342 343 345 346 347 347 345 342 344 341 340 341 339 337 338 336 335 334 334 333 332 330 327 328 324 327 325 326 325 328 328 329 330
325 326 323 327 331 332 334 337 339 341 342 344 345 346 347 345 344 343 342 340 339 334 335 339 337 336 335 335 334 333 331 329 326 328 325 323 323 323 325 322 322 326 325
322 326 328 331 333 333 334 337 339 341 342 344 345 345 345 344 341 342 338 336 333 336 337 336 337 334 326 330 333 333 332 327 324 328 323 321 321 321 321 323 322 323 325
321 324 330 333 332 333 336 337 338 341 343 344 344 344 343 340 311 315 328 335 336 336 335 335 335 324 323 315 317 318 322 326 329 327 324 320 320 322 322 321 321 320 318
321 323 329 335 332 333 334 334 335 338 342 342 344 343 342 339 307 309 315 336 336 336 335 333 331 332 326 330 313 312 313 312 318 332 326 324 321 322 325 324 323 322 323
320 322 332 333 331 332 333 334 335 340 342 342 341 339 334 321 303 303 310 337 336 335 335 334 332 331 330 328 326 325 325 329 330 330 332 328 327 327 323 323 325 321 323
322 322 332 331 330 331 333 334 337 339 337 337 334 330 322 315 301 303 321 334 332 332 332 332 332 331 308 306 323 322 325 324 309 308 311 309 305 308 317 325 322 323 318
321 323 332 332 332 334 333 334 335 336 332 326 326 330 319 321 299 302 320 330 328 326 327 328 306 323 299 301 323 321 320 322 323 323 323 314 316 316 308 331 326 321 319
323 327 331 332 333 333 333 333 330 329 324 325 324 324 324 321 313 300 306 329 327 327 327 328 321 298 298 300 308 322 319 323 314 324 322 323 324 322 323 325 328 326 321
324 328 330 330 330 330 329 328 327 322 323 322 322 322 323 323 307 300 302 312 314 328 328 325 311 297 297 299 310 298 300 311 324 319 320 319 320 321 323 324 326 327 330
327 328 328 329 328 329 325 324 321 322 321 320 320 320 321 324 322 299 299 300 307 326 328 308 295 295 296 301 297 299 302 323 322 320 320 319 321 323 324 324 327 325 324
326 326 327 325 326 325 325 326 326 323 322 321 321 321 321 321 322 321 317 316 304 310 305 309 305 307 304 307 310 314 323 324 322 320 319 321 322 323 322 323 323 322 321
325 324 324 326 325 323 321 327 328 329 323 324 324 322 320 320 321 314 316 322 320 312 314 318 320 320 318 320 321 321 321 322 321 322 321 321 320 320 320 321 321 321 322
322 325 322 320 320 321 319 314 295 299 300 301 306 317 321 306 299 299 298 298 298 300 320 319 318 318 318 318 318 319 320 316 321 321 321 321 320 319 320 319 319 318 317
325 322 320 319 322 322 322 317 311 303 295 294 295 297 302 301 296 296 296 296 296 306 320 319 319 319 319 319 319 319 319 320 322 320 319 319 319 319 318 317 319 322 319
322 309 323 325 325 321 321 320 320 317 315 312 296 299 294 295 294 294 295 302 316 315 321 317 318 320 320 320 320 320 320 320 320 320 320 320 320 320 319 316 317 318 318
324 325 323 322 322 319 322 322 321 319 314 309 308 301 296 293 293 295 299 319 318 316 317 318 324 322 320 321 320 320 320 319 319 320 320 320 320 320 318 320 318 304 306
325 307 314 323 324 322 321 321 319 315 315 313 310 310 311 310 314 317 319 318 317 318 319 319 321 320 321 323 321 320 319 319 320 320 320 320 320 322 319 317 318 316 315
322 324 311 326 325 322 320 318 316 315 313 312 312 311 297 317 316 316 317 320 319 321 321 323 320 322 325 325 323 322 322 322 319 322 321 321 323 318 320 319 320 319 319
324 323 323 321 322 322 321 320 317 315 314 314 312 303 293 311 310 308 307 309 310 320 318 315 313 312 313 317 326 323 322 323 322 322 320 319 319 320 321 324 317 321 325
326 321 321 321 322 312 319 318 316 315 314 315 313 308 307 305 303 303 302 305 303 305 306 309 309 310 309 312 309 318 324 326 326 323 326 326 326 326 327 326 325 324 321
327 321 319 319 320 320 319 318 315 309 315 313 308 304 302 301 300 299 300 299 301 301 299 299 304 305 303 306 312 314 316 323 324 324 325 323 321 317 316 313 312 311 306
323 319 319 319 319 318 317 315 315 313 310 306 302 301 299 298 297 297 297 297 297 296 296 296 296 298 299 300 302 300 290 288 305 301 314 308 305 304 302 301 299 298 297
321 319 319 319 319 318 315 311 309 308 305 301 300 300 297 295 294 293 295 295 294 294 294 293 292 292 292 291 290 287 287 288 295 290 306 307 303 300 298 299 297 296 296
Wind_Speed
16 15 15 14 14 13 13 13 13 12 13 13 13 13 12 12 13 12 10 10 10 9 7 9 9 8 7 6 5 5 5 4 5 4 1 1 2 4 4 3 4 4 6
15 15 16 15 13 13 14 14 14 14 12 13 13 12 12 13 14 13 11 10 10 9 11 10 10 7 8 7 6 6 5 4 4 5 3 3 2 5 4 4 4 3 4
16 16 16 17 14 15 15 14 15 14 14 14 14 14 15 15 14 11 12 11 11 11 11 11 10 10 9 7 7 6 5 4 3 4 5 2 2 2 3 5 5 5 5
17 16 17 17 16 15 14 14 15 15 15 15 14 15 15 15 14 13 12 10 9 8 8 9 9 11 10 10 8 7 6 5 5 5 5 5 2 2 3 4 4 3 3
18 18 18 17 16 14 14 14 14 14 14 14 15 14 14 13 11 13 10 10 9 9 8 8 8 9 8 8 7 8 8 6 5 7 6 4 3 4 5 2 5 4 4
19 18 19 16 15 15 13 14 13 14 15 16 16 16 15 10 13 13 11 8 10 9 8 7 7 8 8 8 7 8 9 9 9 7 6 8 6 4 5 7 6 6 3
20 17 18 16 16 15 15 14 16 16 16 17 16 15 14 12 14 14 12 9 8 7 7 6 6 6 8 9 6 6 5 3 4 8 7 8 6 6 8 8 9 8 4
20 15 16 16 15 16 14 16 16 15 16 15 14 14 13 8 12 13 11 9 7 6 6 7 7 8 9 9 8 7 7 8 7 6 6 8 7 8 8 6 8 6 5
19 14 14 12 15 18 19 18 15 14 14 14 14 13 12 8 10 13 11 8 8 7 6 6 6 7 8 9 9 7 7 6 6 6 5 8 12 12 9 8 8 9 5
14 13 12 13 15 17 18 17 14 14 14 11 11 11 12 13 8 10 10 7 9 6 6 6 5 4 9 10 8 8 7 7 7 7 7 7 9 9 7 7 9 7 5
9 12 13 12 13 14 16 16 16 15 13 12 13 11 12 11 8 8 8 8 8 7 7 6 4 7 10 8 9 6 6 7 6 7 6 6 6 7 6 3 3 5 7
10 12 14 14 12 13 18 15 15 16 15 11 13 10 8 9 9 7 7 8 5 8 8 6 5 7 9 10 7 13 11 8 7 6 6 6 6 6 5 4 4 2 2
10 9 12 14 14 16 17 16 13 13 12 10 9 10 9 7 7 7 9 9 7 7 7 9 9 10 10 9 13 14 10 7 7 6 6 5 5 6 7 6 5 6 5
14 12 11 15 16 14 12 12 13 12 11 11 11 10 9 8 8 6 6 7 10 9 10 7 8 10 10 10 8 6 4 5 5 7 6 6 6 6 5 4 5 5 5
14 13 13 13 13 13 10 10 12 12 12 12 10 11 10 9 7 9 8 7 7 8 10 7 7 7 7 6 6 5 4 4 5 5 6 6 6 5 4 5 4 4 4
17 14 11 11 12 12 12 11 20 12 15 14 11 9 6 12 14 12 11 12 14 13 7 6 5 6 6 6 6 5 4 4 4 5 5 5 6 6 5 4 3 3 4
15 15 13 11 11 13 12 11 10 12 20 16 12 10 10 12 13 12 13 14 10 8 7 6 6 7 6 6 6 5 4 4 5 5 5 5 5 5 5 5 4 4 4
13 14 12 11 12 11 10 11 10 9 8 6 12 7 11 13 13 13 14 10 5 5 6 6 6 7 6 6 5 5 5 5 4 4 5 5 6 6 6 4 4 3 4
15 13 11 9 10 11 11 10 10 10 9 8 7 8 7 11 12 12 8 5 7 5 5 5 6 6 5 5 5 4 5 4 4 5 5 5 5 5 4 5 5 5 3
13 15 12 12 12 10 9 10 9 10 10 8 7 6 5 6 4 5 6 5 5 5 7 6 6 5 5 6 5 5 5 6 6 5 5 5 5 5 4 4 4 3 4
10 11 13 11 11 11 11 10 10 9 9 8 8 6 8 7 6 5 5 6 5 8 8 8 6 4 3 3 4 5 4 4 2 4 5 5 6 5 5 4 5 5 4
11 10 9 9 9 10 11 10 10 11 10 10 8 5 9 7 7 7 7 6 7 8 6 6 6 5 4 3 1 3 2 4 4 5 4 3 3 4 5 7 4 7 5
12 11 10 10 9 12 11 11 11 10 10 12 9 8 7 8 7 8 8 8 7 8 7 7 6 6 5 5 4 2 3 1 3 1 3 2 3 4 5 3 3 1 6
14 12 12 10 9 10 11 11 10 12 12 10 10 9 9 9 10 10 9 9 9 10 9 8 9 9 6 5 5 6 5 4 4 5 3 4 4 6 8 8 8 10 8
13 10 10 11 10 10 12 12 11 11 11 11 10 10 10 9 10 10 10 10 10 11 11 7 7 12 14 15 13 13 10 9 8 6 10 11 10 12 9 9 10 9 9
12 11 10 10 10 10 10 11 11 11 12 11 9 10 10 10 10 9 9 10 10 11 13 11 14 17 16 14 14 12 11 12 12 11 10 10 11 10 8 12 14 9 11
Wind_Direction
280 274 268 262 249 241 230 224 222 208 197 196 188 183 168 168 175 175 178 174 186 170 175 188 187 185 187 184 194 199 200 215 234 127 100 144 160 167 152 160 184 188 145
283 277 266 263 254 237 226 219 213 207 196 187 185 183 169 173 173 173 173 177 166 173 184 188 186 179 182 181 191 194 198 192 212 166 161 161 166 124 122 134 141 138 143
292 285 269 258 248 236 224 214 205 199 188 184 181 176 172 172 169 170 179 175 181 185 178 187 183 183 185 183 194 191 189 177 183 188 143 156 100 152 118 100 100 101 84
293 289 270 257 238 227 218 207 202 193 182 179 176 174 171 167 169 170 173 171 163 167 173 187 187 192 192 189 191 194 183 172 180 191 168 151 137 141 139 130 116 100 89
292 293 270 257 243 218 205 196 191 186 179 169 165 167 167 166 169 165 163 153 157 173 176 192 196 200 194 196 191 187 179 168 185 192 169 156 158 166 161 142 131 115 77
291 287 280 252 229 206 187 182 172 175 168 162 163 166 164 168 137 138 143 154 172 172 180 187 190 183 187 178 177 166 169 180 197 188 174 186 169 152 154 157 140 149 134
286 284 270 232 212 190 174 165 169 164 158 159 160 160 160 150 144 139 145 163 163 172 180 187 196 197 189 184 158 168 190 205 227 187 189 184 164 159 156 170 170 170 141
286 280 250 211 194 180 165 161 159 154 152 151 151 145 138 122 135 134 145 153 152 165 180 179 177 170 178 177 169 172 183 188 202 213 206 177 160 162 155 145 144 106 102
282 279 225 187 180 172 158 152 148 137 139 140 134 131 119 121 132 136 148 153 148 159 161 165 167 166 155 157 156 156 151 135 61 64 104 143 135 143 149 154 155 164 151
269 268 200 177 176 165 148 138 130 129 128 115 111 124 123 133 135 135 153 149 145 141 125 125 55 163 150 165 154 145 147 150 144 127 128 112 140 145 171 204 172 178 158
244 246 179 165 152 148 128 126 121 122 112 107 118 124 126 129 139 141 155 148 145 148 145 134 102 122 133 140 131 138 141 149 120 134 131 135 136 148 174 180 260 175 172
236 192 159 143 139 129 124 120 123 115 117 122 121 115 114 130 136 145 127 102 133 143 133 115 112 135 137 139 125 128 129 140 139 132 138 136 140 146 155 157 142 146 35
197 152 140 133 130 130 125 124 115 117 122 125 125 131 133 140 134 112 107 119 111 128 117 99 117 109 107 96 123 132 149 150 146 152 146 140 154 150 142 141 138 114 81
161 144 136 127 123 124 122 123 128 132 136 137 140 136 140 142 141 127 126 115 106 94 107 112 106 94 80 108 123 151 137 151 154 152 150 141 145 156 157 157 155 164 156
138 129 123 119 119 114 93 126 138 143 146 145 144 147 151 155 157 152 151 147 139 129 128 130 124 124 130 131 126 120 123 142 146 140 149 155 152 149 144 156 153 175 194
136 129 122 121 119 121 109 86 43 69 81 83 112 146 125 115 129 130 121 120 127 151 142 132 127 133 134 132 130 130 131 138 143 146 153 160 156 164 156 161 158 166 178
127 128 119 128 130 128 121 111 100 58 65 55 69 85 109 133 126 120 124 129 143 146 140 131 134 142 142 143 142 147 149 151 150 154 153 156 157 156 164 165 193 179 210
118 112 117 129 123 117 116 120 120 119 115 90 43 77 108 116 116 121 128 122 121 110 129 133 140 143 147 146 147 149 146 148 154 159 163 170 172 175 168 166 178 190 193
129 127 122 116 107 109 119 118 117 120 115 113 116 78 68 91 117 131 156 126 125 115 115 114 124 125 133 137 145 146 150 153 159 167 172 174 174 177 182 190 176 172 174
111 106 103 117 125 120 119 122 119 122 120 117 113 117 124 119 130 133 125 114 109 120 120 114 116 129 163 164 143 152 152 166 173 179 175 181 177 196 168 182 193 173 199
115 121 117 123 125 129 128 121 123 122 119 116 119 126 117 120 114 110 104 111 119 133 129 126 114 105 83 121 157 170 178 167 146 177 189 180 182 176 199 205 200 222 207
124 117 113 118 120 122 125 126 125 122 124 123 116 86 86 97 96 87 79 74 73 77 79 90 87 77 64 52 58 98 146 169 163 183 147 180 184 214 188 200 199 238 213
121 120 121 124 122 123 119 119 120 123 126 125 111 97 95 92 86 85 83 80 72 69 61 66 82 79 55 48 37 333 156 115 81 166 248 198 218 228 216 223 249 351 46
124 122 123 123 123 120 118 117 119 123 123 111 103 94 94 93 90 83 86 83 79 73 67 61 62 63 63 58 63 50 32 40 64 44 50 96 95 70 70 67 59 72 82
119 121 124 124 122 118 117 119 119 109 105 105 103 99 98 93 92 90 88 88 87 81 72 59 65 61 58 58 59 62 40 34 53 72 86 81 85 87 87 83 80 68 63
124 125 126 122 120 118 115 111 110 109 106 104 100 98 98 93 89 85 86 88 84 80 82 74 69 66 64 58 54 47 47 47 55 46 72 76 76 74 71 84 79 74 70